Flag for Austria Weather past 2 weeks in Stockerau, Lower Austria, Austria

Now
73 °F

Partly sunny.


Feels Like: 77 °F
Forecast: 52 / 76 °F
Wind: 17 mph from Southeast

Location: Tulln Airport

Current Time: May 29, 2015 at 6:45:42 PM

Latest Report: May 29, 2015 at 5:50 PM


Visibility: 25 mi

Pressure: 29.86 "Hg

Humidity: 47%

Dew point: 52 °F

Location of StockerauLocation

Historic Weather in Stockerau — Graph

°F

Stockerau temperature yesterday

Maximum temperature yesterday: 64 °F (at 2:50 PM)
Minimum temperature yesterday: 54 °F (at 10:50 PM)
Average temperature yesterday: 61 °F

Past Weeks' High & Low Weather Summary

 TemperatureHumidityPressure
High77 °F (May 18, 4:50 PM)100% (May 16, 5:50 AM)30.24 "Hg (May 16, 5:50 AM)
Low43 °F (May 18, 5:50 AM)38% (May 16, 1:50 PM)29.71 "Hg (May 19, 4:50 AM)
Average59 °F76%30.00 "Hg
* Reported May 14 5:50 PM — May 29 5:50 PM, Stockerau, Weather by CustomWeather, © 2015

Note: Actual official high and low records may vary slightly from our data, if they occured in-between our weather recording intervals... More about our weather records

Advertising

Stockerau weather history for previous 24 hours

 ConditionsComfort  
Time TempWeatherWind HumidityBarometerVisibility
5:50 PM
Fri, May 29
73 °FPartly sunny.17 mph47%29.86 "Hg25 mi
4:50 PM75 °FPartly sunny.16 mph44%29.89 "Hg31 mi
3:50 PM75 °FPassing clouds.14 mph44%29.89 "Hg31 mi
2:50 PM75 °FPassing clouds.8 mph44%29.92 "Hg31 mi
1:50 PM75 °FPassing clouds.3 mph44%29.95 "Hg31 mi
12:50 PM73 °FPassing clouds.5 mph57%29.95 "Hg22 mi
11:50 AM72 °FPassing clouds.2 mph50%29.95 "Hg22 mi
10:50 AM66 °FPassing clouds.2 mph64%29.98 "Hg22 mi
9:50 AM63 °FScattered clouds.2 mph68%29.98 "Hg22 mi
8:50 AM57 °FPartly sunny.2 mph72%30.01 "Hg19 mi
7:50 AM52 °FPartly sunny.1 mph82%30.01 "Hg19 mi
6:50 AM46 °FPartly sunny.No wind93%30.01 "Hg12 mi
5:50 AM45 °FPassing clouds.2 mph93%30.01 "Hg12 mi
10:50 PM
Thu, May 28
54 °FPassing clouds.3 mph72%29.98 "Hg9 mi
9:50 PM55 °FPassing clouds.9 mph63%29.98 "Hg12 mi
8:50 PM57 °FPassing clouds.5 mph63%29.98 "Hg25 mi
7:50 PM61 °FPassing clouds.8 mph55%29.98 "Hg25 mi
6:50 PM64 °FScattered clouds.3 mph52%29.98 "Hg25 mi
Weather by CustomWeather, © 2015

See weather overviewHow to use our weather pages